Time,TemperatureF,DewpointF,PressureIn,WindDirection,WindDirectionDegrees,WindSpeedMPH,WindSpeedGustMPH,Humidity,HourlyPrecipIn,Conditions,Clouds,dailyrainin,SolarRadiationWatts/m^2,SoftwareType,DateUTC
2013-02-07 00:00:00,16.5,13.1,30.24,WSW,248,0.0,1.0,86,0.00,,---,0.06,0.00,VWS V14.01,2013-02-07 05:00:00,
2013-02-07 00:05:00,16.4,13.2,30.24,WSW,248,0.0,1.0,87,0.00,,---,0.00,0.00,VWS V14.01,2013-02-07 05:05:00,
2013-02-07 00:10:00,16.5,13.6,30.24,WSW,248,0.0,1.0,88,0.00,,---,0.00,0.00,VWS V14.01,2013-02-07 05:10:00,
2013-02-07 00:15:00,16.5,13.6,30.25,WSW,248,0.0,1.0,88,0.00,,---,0.00,0.00,VWS V14.01,2013-02-07 05:15:00,
2013-02-07 00:20:00,16.4,13.5,30.25,WSW,248,0.0,1.0,88,0.00,,---,0.00,0.00,VWS V14.01,2013-02-07 05:20:00,
2013-02-07 00:25:00,16.3,13.4,30.24,WSW,248,0.0,1.0,88,0.00,,---,0.00,0.00,VWS V14.01,2013-02-07 05:25:00,
2013-02-07 00:30:00,16.3,13.4,30.25,WSW,248,0.0,0.0,88,0.00,,---,0.00,0.00,VWS V14.01,2013-02-07 05:30:00,
2013-02-07 00:35:00,16.1,13.2,30.25,WSW,248,0.0,1.0,88,0.00,,---,0.00,0.00,VWS V14.01,2013-02-07 05:35:00,
2013-02-07 00:40:00,15.9,13.0,30.25,WSW,248,0.0,1.0,88,0.00,,---,0.00,0.00,VWS V14.01,2013-02-07 05:40:00,
2013-02-07 00:45:00,15.7,12.5,30.25,WSW,248,0.0,1.0,87,0.00,,---,0.00,0.00,VWS V14.01,2013-02-07 05:45:00,
2013-02-07 00:50:00,15.6,12.7,30.25,WSW,248,0.0,1.0,88,0.00,,---,0.00,0.00,VWS V14.01,2013-02-07 05:50:00,
2013-02-07 00:55:00,15.7,12.8,30.24,WSW,248,0.0,1.0,88,0.00,,---,0.00,0.00,VWS V14.01,2013-02-07 05:55:00,
2013-02-07 01:00:00,16.0,13.3,30.23,WSW,248,0.0,0.0,89,0.00,,---,0.00,0.00,VWS V14.01,2013-02-07 06:00:00,
2013-02-07 01:05:00,16.5,14.1,30.23,WSW,248,0.0,1.0,90,0.00,,---,0.00,0.00,VWS V14.01,2013-02-07 06:05:00,
2013-02-07 01:10:00,17.0,14.6,30.22,WSW,248,0.0,1.0,90,0.00,,---,0.00,0.00,VWS V14.01,2013-02-07 06:10:00,
2013-02-07 01:15:00,17.2,14.8,30.22,WSW,248,0.0,1.0,90,0.00,,---,0.00,0.00,VWS V14.01,2013-02-07 06:15:00,
2013-02-07 01:20:00,17.3,14.9,30.21,WSW,248,0.0,1.0,90,0.00,,---,0.00,0.00,VWS V14.01,2013-02-07 06:20:00,
2013-02-07 01:25:00,17.2,14.8,30.22,WSW,248,0.0,1.0,90,0.00,,---,0.00,0.00,VWS V14.01,2013-02-07 06:25:00,
2013-02-07 01:30:00,18.2,16.0,30.20,WSW,248,0.0,2.0,91,0.00,,---,0.00,0.00,VWS V14.01,2013-02-07 06:30:00,
2013-02-07 01:31:00,17.0,14.3,30.22,WSW,248,0.0,0.0,89,0.00,,---,0.00,0.00,VWS V14.01,2013-02-07 06:31:00,
2013-02-07 01:36:00,16.7,14.0,30.21,WSW,248,0.0,1.0,89,0.00,,---,0.00,0.00,VWS V14.01,2013-02-07 06:36:00,
2013-02-07 01:41:00,16.6,13.9,30.21,WSW,248,0.0,1.0,89,0.00,,---,0.00,0.00,VWS V14.01,2013-02-07 06:41:00,
2013-02-07 01:46:00,16.4,13.7,30.22,WSW,248,0.0,1.0,89,0.00,,---,0.00,0.00,VWS V14.01,2013-02-07 06:46:00,
2013-02-07 01:51:00,16.4,13.7,30.21,WSW,248,0.0,1.0,89,0.00,,---,0.00,0.00,VWS V14.01,2013-02-07 06:51:00,
2013-02-07 01:56:00,16.4,13.7,30.21,WSW,248,0.0,1.0,89,0.00,,---,0.00,0.00,VWS V14.01,2013-02-07 06:56:00,
2013-02-07 02:00:00,18.6,16.2,30.20,WSW,248,0.0,1.0,90,0.00,,---,0.00,0.00,VWS V14.01,2013-02-07 07:00:00,
2013-02-07 02:01:00,16.6,14.2,30.21,WSW,248,0.0,0.0,90,0.00,,---,0.00,0.00,VWS V14.01,2013-02-07 07:01:00,
2013-02-07 02:06:00,17.0,14.6,30.20,WSW,248,0.0,0.0,90,0.00,,---,0.00,0.00,VWS V14.01,2013-02-07 07:06:00,
2013-02-07 02:11:00,17.5,15.3,30.20,WSW,248,0.0,0.0,91,0.00,,---,0.00,0.00,VWS V14.01,2013-02-07 07:11:00,
2013-02-07 02:16:00,17.8,15.6,30.20,WSW,248,0.0,1.0,91,0.00,,---,0.00,0.00,VWS V14.01,2013-02-07 07:16:00,
2013-02-07 02:21:00,18.0,15.6,30.19,WSW,248,0.0,1.0,90,0.00,,---,0.00,0.00,VWS V14.01,2013-02-07 07:21:00,
2013-02-07 02:26:00,18.1,15.9,30.20,WSW,248,1.0,2.0,91,0.00,,---,0.00,0.00,VWS V14.01,2013-02-07 07:26:00,
2013-02-07 02:30:00,19.7,17.5,30.21,WSW,248,0.0,2.0,91,0.00,,---,0.00,0.00,VWS V14.01,2013-02-07 07:30:00,
2013-02-07 02:31:00,18.2,16.0,30.20,WSW,248,0.0,0.0,91,0.00,,---,0.00,0.00,VWS V14.01,2013-02-07 07:31:00,
2013-02-07 02:36:00,18.2,15.8,30.20,WSW,248,0.0,1.0,90,0.00,,---,0.00,0.00,VWS V14.01,2013-02-07 07:36:00,
2013-02-07 02:41:00,18.3,15.9,30.20,WSW,248,0.0,1.0,90,0.00,,---,0.00,0.00,VWS V14.01,2013-02-07 07:41:00,
2013-02-07 02:46:00,18.4,16.0,30.20,WSW,248,0.0,1.0,90,0.00,,---,0.00,0.00,VWS V14.01,2013-02-07 07:46:00,
2013-02-07 02:51:00,18.5,16.1,30.19,WSW,248,0.0,1.0,90,0.00,,---,0.00,0.00,VWS V14.01,2013-02-07 07:51:00,
2013-02-07 02:56:00,18.6,16.2,30.19,WSW,248,0.0,1.0,90,0.00,,---,0.00,0.00,VWS V14.01,2013-02-07 07:56:00,
2013-02-07 03:00:00,21.6,19.6,30.21,West,278,0.0,3.0,92,0.00,,---,0.00,0.00,VWS V14.01,2013-02-07 08:00:00,
2013-02-07 03:01:00,18.7,16.3,30.20,WSW,248,0.0,1.0,90,0.00,,---,0.00,0.00,VWS V14.01,2013-02-07 08:01:00,
2013-02-07 03:06:00,18.8,16.6,30.20,WSW,248,0.0,1.0,91,0.00,,---,0.00,0.00,VWS V14.01,2013-02-07 08:06:00,
2013-02-07 03:11:00,18.9,16.7,30.20,WSW,248,0.0,2.0,91,0.00,,---,0.00,0.00,VWS V14.01,2013-02-07 08:11:00,
2013-02-07 03:16:00,19.0,16.8,30.21,WSW,248,0.0,2.0,91,0.00,,---,0.00,0.00,VWS V14.01,2013-02-07 08:16:00,
2013-02-07 03:21:00,19.2,17.0,30.21,WSW,248,1.0,2.0,91,0.00,,---,0.00,0.00,VWS V14.01,2013-02-07 08:21:00,
2013-02-07 03:26:00,19.5,17.3,30.21,WSW,248,0.0,2.0,91,0.00,,---,0.00,0.00,VWS V14.01,2013-02-07 08:26:00,
2013-02-07 03:30:00,23.7,21.2,30.21,ENE,57,0.0,5.0,90,0.00,,---,0.00,0.00,VWS V14.01,2013-02-07 08:30:00,
2013-02-07 03:31:00,19.7,17.5,30.21,WSW,248,0.0,0.0,91,0.00,,---,0.00,0.00,VWS V14.01,2013-02-07 08:31:00,
2013-02-07 03:36:00,19.9,17.7,30.22,WSW,248,0.0,0.0,91,0.00,,---,0.00,0.00,VWS V14.01,2013-02-07 08:36:00,
2013-02-07 03:41:00,20.2,18.0,30.21,WSW,248,0.0,0.0,91,0.00,,---,0.00,0.00,VWS V14.01,2013-02-07 08:41:00,
2013-02-07 03:46:00,20.5,18.3,30.21,WSW,248,0.0,0.0,91,0.00,,---,0.00,0.00,VWS V14.01,2013-02-07 08:46:00,
2013-02-07 03:51:00,20.7,18.5,30.21,WSW,248,0.0,0.0,91,0.00,,---,0.00,0.00,VWS V14.01,2013-02-07 08:51:00,
2013-02-07 03:56:00,21.1,19.1,30.21,WSW,250,1.0,2.0,92,0.00,,---,0.00,0.00,VWS V14.01,2013-02-07 08:56:00,
2013-02-07 04:00:00,24.8,21.5,30.21,ENE,76,2.0,4.0,87,0.00,,---,0.00,0.00,VWS V14.01,2013-02-07 09:00:00,
2013-02-07 04:01:00,21.7,19.7,30.21,West,278,0.0,1.0,92,0.00,,---,0.00,0.00,VWS V14.01,2013-02-07 09:01:00,
2013-02-07 04:06:00,22.3,20.3,30.22,NE,45,1.0,5.0,92,0.00,,---,0.00,0.00,VWS V14.01,2013-02-07 09:06:00,
2013-02-07 04:11:00,22.8,20.6,30.22,NE,45,1.0,5.0,91,0.00,,---,0.00,0.00,VWS V14.01,2013-02-07 09:11:00,
2013-02-07 04:16:00,23.1,20.9,30.21,NE,45,0.0,5.0,91,0.00,,---,0.00,0.00,VWS V14.01,2013-02-07 09:16:00,
2013-02-07 04:21:00,23.3,20.8,30.21,ENE,65,2.0,5.0,90,0.00,,---,0.00,0.00,VWS V14.01,2013-02-07 09:21:00,
2013-02-07 04:26:00,23.6,21.1,30.21,ENE,57,1.0,5.0,90,0.00,,---,0.00,0.00,VWS V14.01,2013-02-07 09:26:00,
2013-02-07 04:30:00,25.5,21.9,30.20,ENE,72,0.0,5.0,86,0.00,,---,0.00,0.00,VWS V14.01,2013-02-07 09:30:00,
2013-02-07 04:31:00,23.8,21.3,30.21,ENE,57,0.0,1.0,90,0.00,,---,0.00,0.00,VWS V14.01,2013-02-07 09:31:00,
2013-02-07 04:36:00,23.9,21.1,30.21,ENE,68,2.0,4.0,89,0.00,,---,0.00,0.00,VWS V14.01,2013-02-07 09:36:00,
2013-02-07 04:41:00,24.2,21.4,30.21,ENE,74,3.0,4.0,89,0.00,,---,0.00,0.00,VWS V14.01,2013-02-07 09:41:00,
2013-02-07 04:46:00,24.4,21.4,30.21,ENE,76,1.0,4.0,88,0.00,,---,0.00,0.00,VWS V14.01,2013-02-07 09:46:00,
2013-02-07 04:51:00,24.5,21.5,30.21,ENE,76,4.0,4.0,88,0.00,,---,0.00,0.00,VWS V14.01,2013-02-07 09:51:00,
2013-02-07 04:56:00,24.7,21.7,30.21,ENE,76,1.0,4.0,88,0.00,,---,0.00,0.00,VWS V14.01,2013-02-07 09:56:00,
2013-02-07 05:00:00,25.5,21.9,30.19,ENE,58,0.0,3.0,86,0.00,,---,0.00,0.00,VWS V14.01,2013-02-07 10:00:00,
2013-02-07 05:01:00,24.8,21.5,30.21,ENE,76,1.0,2.0,87,0.00,,---,0.00,0.00,VWS V14.01,2013-02-07 10:01:00,
2013-02-07 05:06:00,24.9,21.6,30.21,ENE,78,3.0,4.0,87,0.00,,---,0.00,0.00,VWS V14.01,2013-02-07 10:06:00,
2013-02-07 05:11:00,25.0,21.7,30.20,ENE,77,3.0,4.0,87,0.00,,---,0.00,0.00,VWS V14.01,2013-02-07 10:11:00,
2013-02-07 05:16:00,25.1,21.8,30.20,ENE,78,2.0,4.0,87,0.00,,---,0.00,0.00,VWS V14.01,2013-02-07 10:16:00,
2013-02-07 05:21:00,25.2,21.6,30.20,ENE,75,2.0,5.0,86,0.00,,---,0.00,0.00,VWS V14.01,2013-02-07 10:21:00,
2013-02-07 05:26:00,25.4,21.8,30.20,ENE,74,2.0,5.0,86,0.00,,---,0.00,0.00,VWS V14.01,2013-02-07 10:26:00,
2013-02-07 05:30:00,26.5,23.2,30.18,East,80,2.0,3.0,87,0.00,,---,0.00,0.00,VWS V14.01,2013-02-07 10:30:00,
2013-02-07 05:32:00,25.5,21.9,30.19,ENE,72,1.0,1.0,86,0.00,,---,0.00,0.00,VWS V14.01,2013-02-07 10:32:00,
2013-02-07 05:37:00,25.6,22.0,30.19,ENE,72,1.0,2.0,86,0.00,,---,0.00,0.00,VWS V14.01,2013-02-07 10:37:00,
2013-02-07 05:42:00,25.6,22.0,30.20,ENE,64,1.0,2.0,86,0.00,,---,0.00,0.00,VWS V14.01,2013-02-07 10:42:00,
2013-02-07 05:47:00,25.5,21.9,30.19,ENE,63,0.0,3.0,86,0.00,,---,0.00,0.00,VWS V14.01,2013-02-07 10:47:00,
2013-02-07 05:52:00,25.5,21.9,30.19,ENE,60,2.0,3.0,86,0.00,,---,0.00,0.00,VWS V14.01,2013-02-07 10:52:00,
2013-02-07 05:57:00,25.5,21.9,30.19,ENE,58,0.0,3.0,86,0.00,,---,0.00,0.00,VWS V14.01,2013-02-07 10:57:00,
2013-02-07 06:00:00,27.1,23.8,30.18,East,80,0.0,2.0,87,0.00,,---,0.00,0.00,VWS V14.01,2013-02-07 11:00:00,
2013-02-07 06:02:00,25.5,21.9,30.19,ENE,58,0.0,0.0,86,0.00,,---,0.00,0.00,VWS V14.01,2013-02-07 11:02:00,
2013-02-07 06:07:00,25.6,22.0,30.19,ENE,58,0.0,0.0,86,0.00,,---,0.00,0.00,VWS V14.01,2013-02-07 11:07:00,
2013-02-07 06:12:00,25.7,22.4,30.18,ENE,58,1.0,2.0,87,0.00,,---,0.00,0.00,VWS V14.01,2013-02-07 11:12:00,
2013-02-07 06:17:00,25.9,22.6,30.18,ENE,73,0.0,3.0,87,0.00,,---,0.00,0.00,VWS V14.01,2013-02-07 11:17:00,
2013-02-07 06:22:00,26.2,22.9,30.19,ENE,73,0.0,3.0,87,0.00,,---,0.00,0.00,VWS V14.01,2013-02-07 11:22:00,
2013-02-07 06:27:00,26.3,23.0,30.19,East,80,0.0,3.0,87,0.00,,---,0.00,0.00,VWS V14.01,2013-02-07 11:27:00,
2013-02-07 06:30:00,27.1,23.5,30.17,East,79,0.0,3.0,86,0.00,,---,0.00,0.00,VWS V14.01,2013-02-07 11:30:00,
2013-02-07 06:32:00,26.5,23.2,30.18,East,80,2.0,2.0,87,0.00,,---,0.00,0.00,VWS V14.01,2013-02-07 11:32:00,
2013-02-07 06:37:00,26.6,23.3,30.18,East,80,0.0,2.0,87,0.00,,---,0.00,0.00,VWS V14.01,2013-02-07 11:37:00,
2013-02-07 06:42:00,26.6,23.3,30.18,East,80,1.0,2.0,87,0.00,,---,0.00,0.00,VWS V14.01,2013-02-07 11:42:00,
2013-02-07 06:47:00,26.8,23.5,30.18,East,80,1.0,2.0,87,0.00,,---,0.00,0.00,VWS V14.01,2013-02-07 11:47:00,
2013-02-07 06:52:00,27.0,23.6,30.18,East,80,0.0,2.0,87,0.00,,---,0.00,0.00,VWS V14.01,2013-02-07 11:52:00,
2013-02-07 06:57:00,27.1,23.8,30.18,East,80,1.0,2.0,87,0.00,,---,0.00,0.00,VWS V14.01,2013-02-07 11:57:00,
2013-02-07 07:00:00,27.5,24.1,30.19,East,79,0.0,2.0,87,0.00,,---,0.00,21.00,VWS V14.01,2013-02-07 12:00:00,
2013-02-07 07:02:00,27.1,23.5,30.18,East,80,0.0,1.0,86,0.00,,---,0.00,0.00,VWS V14.01,2013-02-07 12:02:00,
2013-02-07 07:07:00,27.1,23.5,30.18,East,80,0.0,1.0,86,0.00,,---,0.00,0.00,VWS V14.01,2013-02-07 12:07:00,
2013-02-07 07:12:00,27.0,23.4,30.18,East,79,2.0,3.0,86,0.00,,---,0.00,0.00,VWS V14.01,2013-02-07 12:12:00,
2013-02-07 07:17:00,27.0,23.4,30.18,East,79,0.0,3.0,86,0.00,,---,0.00,0.00,VWS V14.01,2013-02-07 12:17:00,
2013-02-07 07:22:00,27.0,23.4,30.18,East,79,0.0,3.0,86,0.00,,---,0.00,0.00,VWS V14.01,2013-02-07 12:22:00,
2013-02-07 07:27:00,27.0,23.4,30.18,East,79,0.0,3.0,86,0.00,,---,0.00,0.00,VWS V14.01,2013-02-07 12:27:00,
2013-02-07 07:30:00,27.6,24.0,30.19,East,79,0.0,2.0,86,0.00,,---,0.00,54.00,VWS V14.01,2013-02-07 12:30:00,
2013-02-07 07:32:00,27.1,23.5,30.17,East,79,0.0,0.0,86,0.00,,---,0.00,0.00,VWS V14.01,2013-02-07 12:32:00,
2013-02-07 07:37:00,27.1,23.8,30.18,East,79,1.0,1.0,87,0.00,,---,0.00,0.00,VWS V14.01,2013-02-07 12:37:00,
2013-02-07 07:42:00,27.2,23.9,30.18,East,79,0.0,1.0,87,0.00,,---,0.00,5.00,VWS V14.01,2013-02-07 12:42:00,
2013-02-07 07:47:00,27.3,24.0,30.19,East,79,0.0,1.0,87,0.00,,---,0.00,11.00,VWS V14.01,2013-02-07 12:47:00,
2013-02-07 07:52:00,27.4,24.0,30.19,East,79,0.0,2.0,87,0.00,,---,0.00,14.00,VWS V14.01,2013-02-07 12:52:00,
2013-02-07 07:57:00,27.4,24.0,30.19,East,79,0.0,2.0,87,0.00,,---,0.00,19.00,VWS V14.01,2013-02-07 12:57:00,
2013-02-07 08:00:00,28.1,24.5,30.18,East,79,2.0,2.0,86,0.00,,---,0.00,104.00,VWS V14.01,2013-02-07 13:00:00,
2013-02-07 08:02:00,27.5,24.1,30.20,East,79,0.0,0.0,87,0.00,,---,0.00,25.00,VWS V14.01,2013-02-07 13:02:00,
2013-02-07 08:07:00,27.5,24.1,30.20,East,79,0.0,0.0,87,0.00,,---,0.00,30.00,VWS V14.01,2013-02-07 13:07:00,
2013-02-07 08:12:00,27.5,24.1,30.19,East,79,0.0,2.0,87,0.00,,---,0.00,33.00,VWS V14.01,2013-02-07 13:12:00,
2013-02-07 08:17:00,27.6,24.2,30.20,East,79,0.0,2.0,87,0.00,,---,0.00,42.00,VWS V14.01,2013-02-07 13:17:00,
2013-02-07 08:22:00,27.6,24.0,30.19,East,79,0.0,2.0,86,0.00,,---,0.00,49.00,VWS V14.01,2013-02-07 13:22:00,
2013-02-07 08:27:00,27.6,24.0,30.19,East,79,0.0,2.0,86,0.00,,---,0.00,54.00,VWS V14.01,2013-02-07 13:27:00,
2013-02-07 08:30:00,29.2,25.3,30.17,East,79,0.0,3.0,85,0.00,,---,0.00,162.00,VWS V14.01,2013-02-07 13:30:00,
2013-02-07 08:32:00,27.6,24.0,30.19,East,79,0.0,0.0,86,0.00,,---,0.00,56.00,VWS V14.01,2013-02-07 13:32:00,
2013-02-07 08:37:00,27.5,23.9,30.19,East,79,0.0,1.0,86,0.00,,---,0.00,56.00,VWS V14.01,2013-02-07 13:37:00,
2013-02-07 08:42:00,27.6,24.2,30.19,East,79,0.0,2.0,87,0.00,,---,0.00,62.00,VWS V14.01,2013-02-07 13:42:00,
2013-02-07 08:47:00,27.8,24.4,30.19,East,79,0.0,2.0,87,0.00,,---,0.00,72.00,VWS V14.01,2013-02-07 13:47:00,
2013-02-07 08:52:00,27.9,24.5,30.19,East,79,0.0,2.0,87,0.00,,---,0.00,81.00,VWS V14.01,2013-02-07 13:52:00,
2013-02-07 08:57:00,28.0,24.6,30.18,East,79,0.0,2.0,87,0.00,,---,0.00,95.00,VWS V14.01,2013-02-07 13:57:00,
2013-02-07 09:00:00,32.4,27.8,30.15,East,83,4.0,4.0,83,0.00,,---,0.00,297.00,VWS V14.01,2013-02-07 14:00:00,
2013-02-07 09:02:00,28.1,24.5,30.19,East,79,1.0,2.0,86,0.00,,---,0.00,111.00,VWS V14.01,2013-02-07 14:02:00,
2013-02-07 09:08:00,28.2,24.6,30.18,East,79,0.0,2.0,86,0.00,,---,0.00,134.00,VWS V14.01,2013-02-07 14:08:00,
2013-02-07 09:13:00,28.4,24.8,30.18,East,79,0.0,3.0,86,0.00,,---,0.00,155.00,VWS V14.01,2013-02-07 14:13:00,
2013-02-07 09:18:00,28.6,24.7,30.18,East,79,1.0,3.0,85,0.00,,---,0.00,163.00,VWS V14.01,2013-02-07 14:18:00,
2013-02-07 09:23:00,28.8,24.9,30.17,East,79,0.0,3.0,85,0.00,,---,0.00,167.00,VWS V14.01,2013-02-07 14:23:00,
2013-02-07 09:28:00,29.1,25.2,30.17,East,79,2.0,3.0,85,0.00,,---,0.00,153.00,VWS V14.01,2013-02-07 14:28:00,
2013-02-07 09:30:00,35.0,28.5,30.12,East,84,6.0,8.0,77,0.00,,---,0.00,403.00,VWS V14.01,2013-02-07 14:30:00,
2013-02-07 09:33:00,29.4,25.5,30.17,East,79,0.0,1.0,85,0.00,,---,0.00,178.00,VWS V14.01,2013-02-07 14:33:00,
2013-02-07 09:38:00,29.7,25.8,30.17,East,79,0.0,2.0,85,0.00,,---,0.00,214.00,VWS V14.01,2013-02-07 14:38:00,
2013-02-07 09:43:00,30.1,25.9,30.17,East,79,0.0,2.0,84,0.00,,---,0.00,250.00,VWS V14.01,2013-02-07 14:43:00,
2013-02-07 09:48:00,30.5,26.2,30.16,East,79,0.0,2.0,84,0.00,,---,0.00,311.00,VWS V14.01,2013-02-07 14:48:00,
2013-02-07 09:53:00,31.2,26.9,30.16,East,79,1.0,3.0,84,0.00,,---,0.00,294.00,VWS V14.01,2013-02-07 14:53:00,
2013-02-07 09:58:00,32.1,27.8,30.15,East,85,2.0,4.0,84,0.00,,---,0.00,288.00,VWS V14.01,2013-02-07 14:58:00,
2013-02-07 10:00:00,36.4,28.9,30.12,East,81,3.0,13.0,74,0.00,,---,0.00,225.00,VWS V14.01,2013-02-07 15:00:00,
2013-02-07 10:03:00,32.8,27.9,30.15,East,94,3.0,7.0,82,0.00,,---,0.00,302.00,VWS V14.01,2013-02-07 15:03:00,
2013-02-07 10:08:00,33.4,28.2,30.14,East,101,3.0,7.0,81,0.00,,---,0.00,281.00,VWS V14.01,2013-02-07 15:08:00,
2013-02-07 10:13:00,33.8,28.3,30.14,East,87,2.0,8.0,80,0.00,,---,0.00,380.00,VWS V14.01,2013-02-07 15:13:00,
2013-02-07 10:18:00,34.2,28.4,30.13,ENE,71,4.0,8.0,79,0.00,,---,0.00,306.00,VWS V14.01,2013-02-07 15:18:00,
2013-02-07 10:23:00,34.4,28.3,30.13,ENE,77,4.0,8.0,78,0.00,,---,0.00,387.00,VWS V14.01,2013-02-07 15:23:00,
2013-02-07 10:28:00,34.8,28.3,30.12,East,98,3.0,8.0,77,0.00,,---,0.00,424.00,VWS V14.01,2013-02-07 15:28:00,
2013-02-07 10:30:00,37.1,28.9,30.12,East,80,2.0,8.0,72,0.01,,---,0.01,325.00,VWS V14.01,2013-02-07 15:30:00,
2013-02-07 10:33:00,35.2,28.7,30.12,East,79,7.0,7.0,77,0.00,,---,0.00,387.00,VWS V14.01,2013-02-07 15:33:00,
2013-02-07 10:38:00,35.5,28.7,30.12,ENE,74,4.0,7.0,76,0.00,,---,0.00,272.00,VWS V14.01,2013-02-07 15:38:00,
2013-02-07 10:43:00,35.7,28.6,30.12,ENE,74,5.0,10.0,75,0.00,,---,0.00,302.00,VWS V14.01,2013-02-07 15:43:00,
2013-02-07 10:48:00,35.9,28.8,30.12,ENE,77,9.0,13.0,75,0.00,,---,0.00,367.00,VWS V14.01,2013-02-07 15:48:00,
2013-02-07 10:53:00,36.2,28.7,30.12,ENE,76,1.0,13.0,74,0.00,,---,0.00,244.00,VWS V14.01,2013-02-07 15:53:00,
2013-02-07 10:58:00,36.4,28.9,30.12,ENE,74,5.0,13.0,74,0.00,,---,0.00,216.00,VWS V14.01,2013-02-07 15:58:00,
2013-02-07 11:00:00,38.9,30.0,30.10,East,84,3.0,7.0,70,0.01,,---,0.01,612.00,VWS V14.01,2013-02-07 16:00:00,
2013-02-07 11:03:00,36.5,28.7,30.12,ENE,76,7.0,7.0,73,0.00,,---,0.00,271.00,VWS V14.01,2013-02-07 16:03:00,
2013-02-07 11:08:00,36.6,28.8,30.13,East,80,2.0,7.0,73,0.00,,---,0.00,207.00,VWS V14.01,2013-02-07 16:08:00,
2013-02-07 11:13:00,36.8,29.3,30.13,ENE,75,6.0,7.0,74,0.00,,---,0.00,255.00,VWS V14.01,2013-02-07 16:13:00,
2013-02-07 11:18:00,37.0,29.2,30.13,East,83,1.0,7.0,73,0.00,,---,0.00,311.00,VWS V14.01,2013-02-07 16:18:00,
2013-02-07 11:23:00,37.0,29.2,30.12,ENE,77,3.0,7.0,73,0.00,,---,0.00,309.00,VWS V14.01,2013-02-07 16:23:00,
2013-02-07 11:28:00,37.1,28.9,30.12,East,84,1.0,8.0,72,0.01,,---,0.01,348.00,VWS V14.01,2013-02-07 16:28:00,
2013-02-07 11:30:00,40.2,30.5,30.08,East,80,3.0,8.0,68,0.01,,---,0.01,621.00,VWS V14.01,2013-02-07 16:30:00,
2013-02-07 11:33:00,37.1,28.9,30.12,ENE,75,2.0,5.0,72,0.01,,---,0.01,297.00,VWS V14.01,2013-02-07 16:33:00,
2013-02-07 11:38:00,37.2,29.0,30.12,ENE,69,1.0,6.0,72,0.01,,---,0.01,376.00,VWS V14.01,2013-02-07 16:38:00,
2013-02-07 11:43:00,37.4,29.5,30.11,ENE,75,2.0,6.0,73,0.01,,---,0.01,571.00,VWS V14.01,2013-02-07 16:43:00,
2013-02-07 11:48:00,37.9,29.7,30.11,East,87,1.0,6.0,72,0.01,,---,0.01,468.00,VWS V14.01,2013-02-07 16:48:00,
2013-02-07 11:53:00,38.4,30.2,30.11,ENE,71,2.0,6.0,72,0.01,,---,0.01,622.00,VWS V14.01,2013-02-07 16:53:00,
2013-02-07 11:58:00,38.8,29.9,30.11,ENE,71,5.0,7.0,70,0.01,,---,0.01,612.00,VWS V14.01,2013-02-07 16:58:00,
2013-02-07 12:00:00,41.6,31.1,30.06,East,84,1.0,9.0,66,0.00,,---,0.01,613.00,VWS V14.01,2013-02-07 17:00:00,
2013-02-07 12:03:00,38.9,30.0,30.10,East,82,3.0,4.0,70,0.01,,---,0.01,608.00,VWS V14.01,2013-02-07 17:03:00,
2013-02-07 12:08:00,39.2,29.9,30.10,ESE,103,1.0,8.0,69,0.01,,---,0.01,617.00,VWS V14.01,2013-02-07 17:08:00,
2013-02-07 12:13:00,39.5,30.2,30.09,ENE,78,3.0,8.0,69,0.01,,---,0.01,617.00,VWS V14.01,2013-02-07 17:13:00,
2013-02-07 12:18:00,39.8,30.5,30.09,East,88,1.0,8.0,69,0.01,,---,0.01,622.00,VWS V14.01,2013-02-07 17:18:00,
2013-02-07 12:23:00,39.9,30.2,30.08,East,88,3.0,8.0,68,0.01,,---,0.01,624.00,VWS V14.01,2013-02-07 17:23:00,
2013-02-07 12:28:00,40.0,30.3,30.08,ESE,123,2.0,8.0,68,0.01,,---,0.01,621.00,VWS V14.01,2013-02-07 17:28:00,
2013-02-07 12:30:00,43.4,31.7,30.04,ENE,77,6.0,7.0,63,0.00,,---,0.01,601.00,VWS V14.01,2013-02-07 17:30:00,
2013-02-07 12:33:00,40.3,30.6,30.07,East,94,4.0,6.0,68,0.00,,---,0.01,621.00,VWS V14.01,2013-02-07 17:33:00,
2013-02-07 12:38:00,40.6,30.5,30.07,East,90,4.0,9.0,67,0.00,,---,0.01,619.00,VWS V14.01,2013-02-07 17:38:00,
2013-02-07 12:43:00,40.7,30.6,30.07,East,86,4.0,9.0,67,0.00,,---,0.01,617.00,VWS V14.01,2013-02-07 17:43:00,
2013-02-07 12:48:00,41.1,31.0,30.06,East,92,2.0,9.0,67,0.00,,---,0.01,613.00,VWS V14.01,2013-02-07 17:48:00,
2013-02-07 12:53:00,41.4,30.9,30.06,ENE,74,3.0,9.0,66,0.00,,---,0.01,612.00,VWS V14.01,2013-02-07 17:53:00,
2013-02-07 12:58:00,41.5,30.6,30.06,East,84,3.0,9.0,65,0.00,,---,0.01,612.00,VWS V14.01,2013-02-07 17:58:00,
2013-02-07 13:00:00,44.0,32.2,30.02,ENE,66,2.0,9.0,63,0.00,,---,0.01,570.00,VWS V14.01,2013-02-07 18:00:00,
2013-02-07 13:03:00,41.8,31.3,30.06,East,89,1.0,4.0,66,0.00,,---,0.01,612.00,VWS V14.01,2013-02-07 18:03:00,
2013-02-07 13:08:00,42.2,31.7,30.05,East,88,2.0,4.0,66,0.00,,---,0.01,612.00,VWS V14.01,2013-02-07 18:08:00,
2013-02-07 13:13:00,42.4,31.1,30.05,East,98,4.0,7.0,64,0.00,,---,0.01,610.00,VWS V14.01,2013-02-07 18:13:00,
2013-02-07 13:18:00,42.6,31.3,30.05,East,99,2.0,7.0,64,0.00,,---,0.01,606.00,VWS V14.01,2013-02-07 18:18:00,
2013-02-07 13:23:00,43.1,32.2,30.05,East,88,2.0,7.0,65,0.00,,---,0.01,605.00,VWS V14.01,2013-02-07 18:23:00,
2013-02-07 13:28:00,43.4,31.7,30.04,ENE,71,1.0,7.0,63,0.00,,---,0.01,603.00,VWS V14.01,2013-02-07 18:28:00,
2013-02-07 13:30:00,45.1,32.1,29.99,East,100,3.0,9.0,60,0.00,,---,0.01,527.00,VWS V14.01,2013-02-07 18:30:00,
2013-02-07 13:33:00,43.5,31.8,30.04,East,82,5.0,6.0,63,0.00,,---,0.01,598.00,VWS V14.01,2013-02-07 18:33:00,
2013-02-07 13:38:00,43.6,31.5,30.03,East,82,2.0,6.0,62,0.00,,---,0.01,594.00,VWS V14.01,2013-02-07 18:38:00,
2013-02-07 13:43:00,43.4,31.3,30.03,ENE,71,2.0,9.0,62,0.00,,---,0.01,589.00,VWS V14.01,2013-02-07 18:43:00,
2013-02-07 13:48:00,43.4,31.3,30.03,ENE,65,0.0,9.0,62,0.00,,---,0.01,584.00,VWS V14.01,2013-02-07 18:48:00,
2013-02-07 13:53:00,43.5,31.4,30.03,East,86,0.0,9.0,62,0.00,,---,0.01,578.00,VWS V14.01,2013-02-07 18:53:00,
2013-02-07 13:58:00,43.9,32.1,30.02,ENE,65,0.0,9.0,63,0.00,,---,0.01,573.00,VWS V14.01,2013-02-07 18:58:00,
2013-02-07 14:00:00,46.3,32.3,29.99,East,88,2.0,9.0,58,0.00,,---,0.01,469.00,VWS V14.01,2013-02-07 19:00:00,
2013-02-07 14:03:00,44.3,32.1,30.02,NE,37,0.0,4.0,62,0.00,,---,0.01,564.00,VWS V14.01,2013-02-07 19:03:00,
2013-02-07 14:09:00,44.8,32.6,30.01,ENE,76,4.0,4.0,62,0.00,,---,0.01,557.00,VWS V14.01,2013-02-07 19:09:00,
2013-02-07 14:14:00,45.0,32.0,30.00,East,80,5.0,5.0,60,0.00,,---,0.01,552.00,VWS V14.01,2013-02-07 19:14:00,
2013-02-07 14:19:00,45.0,32.0,30.00,ENE,74,5.0,9.0,60,0.00,,---,0.01,545.00,VWS V14.01,2013-02-07 19:19:00,
2013-02-07 14:24:00,45.0,32.0,30.00,East,80,1.0,9.0,60,0.00,,---,0.01,540.00,VWS V14.01,2013-02-07 19:24:00,
2013-02-07 14:29:00,45.1,32.1,29.99,East,82,2.0,9.0,60,0.00,,---,0.01,529.00,VWS V14.01,2013-02-07 19:29:00,
2013-02-07 14:30:00,46.9,32.5,29.97,ENE,71,3.0,10.0,57,0.00,,---,0.01,404.00,VWS V14.01,2013-02-07 19:30:00,
2013-02-07 14:34:00,45.2,32.2,29.99,East,85,6.0,6.0,60,0.00,,---,0.01,520.00,VWS V14.01,2013-02-07 19:34:00,
2013-02-07 14:39:00,45.4,32.3,29.99,East,94,4.0,6.0,60,0.00,,---,0.01,513.00,VWS V14.01,2013-02-07 19:39:00,
2013-02-07 14:44:00,45.8,32.3,29.98,East,84,4.0,6.0,59,0.00,,---,0.01,504.00,VWS V14.01,2013-02-07 19:44:00,
2013-02-07 14:49:00,46.1,32.6,29.98,East,94,4.0,9.0,59,0.00,,---,0.01,494.00,VWS V14.01,2013-02-07 19:49:00,
2013-02-07 14:54:00,46.1,32.6,29.99,East,98,3.0,9.0,59,0.00,,---,0.01,482.00,VWS V14.01,2013-02-07 19:54:00,
2013-02-07 14:59:00,46.3,32.8,29.99,East,80,4.0,9.0,59,0.00,,---,0.01,471.00,VWS V14.01,2013-02-07 19:59:00,
2013-02-07 15:00:00,47.7,32.8,29.95,East,86,2.0,7.0,56,0.00,,---,0.01,327.00,VWS V14.01,2013-02-07 20:00:00,
2013-02-07 15:04:00,46.4,32.9,29.98,ENE,76,4.0,7.0,59,0.00,,---,0.01,462.00,VWS V14.01,2013-02-07 20:04:00,
2013-02-07 15:09:00,46.5,32.5,29.98,ESE,103,1.0,7.0,58,0.00,,---,0.01,450.00,VWS V14.01,2013-02-07 20:09:00,
2013-02-07 15:14:00,46.6,32.2,29.97,East,80,4.0,7.0,57,0.00,,---,0.01,441.00,VWS V14.01,2013-02-07 20:14:00,
2013-02-07 15:19:00,46.7,32.7,29.97,East,87,1.0,7.0,58,0.00,,---,0.01,431.00,VWS V14.01,2013-02-07 20:19:00,
2013-02-07 15:24:00,46.8,32.8,29.97,ENE,75,3.0,7.0,58,0.00,,---,0.01,418.00,VWS V14.01,2013-02-07 20:24:00,
2013-02-07 15:29:00,46.9,32.5,29.97,ENE,76,5.0,10.0,57,0.00,,---,0.01,406.00,VWS V14.01,2013-02-07 20:29:00,
2013-02-07 15:30:00,48.0,32.6,29.94,ENE,77,3.0,11.0,55,0.00,,---,0.01,234.00,VWS V14.01,2013-02-07 20:30:00,
2013-02-07 15:34:00,46.9,32.9,29.96,East,88,3.0,6.0,58,0.00,,---,0.01,394.00,VWS V14.01,2013-02-07 20:34:00,
2013-02-07 15:39:00,47.0,32.6,29.96,ENE,66,4.0,6.0,57,0.00,,---,0.01,381.00,VWS V14.01,2013-02-07 20:39:00,
2013-02-07 15:44:00,47.2,32.8,29.96,ESE,102,3.0,7.0,57,0.00,,---,0.01,369.00,VWS V14.01,2013-02-07 20:44:00,
2013-02-07 15:49:00,47.4,32.5,29.95,East,98,3.0,7.0,56,0.00,,---,0.01,355.00,VWS V14.01,2013-02-07 20:49:00,
2013-02-07 15:54:00,47.6,33.1,29.95,East,81,4.0,7.0,57,0.00,,---,0.01,343.00,VWS V14.01,2013-02-07 20:54:00,
2013-02-07 15:59:00,47.7,32.8,29.95,East,86,2.0,7.0,56,0.00,,---,0.01,327.00,VWS V14.01,2013-02-07 20:59:00,
2013-02-07 16:00:00,48.1,32.7,29.94,East,86,1.0,11.0,55,0.00,,---,0.01,121.00,VWS V14.01,2013-02-07 21:00:00,
2013-02-07 16:05:00,47.8,32.9,29.95,East,89,3.0,6.0,56,0.00,,---,0.01,313.00,VWS V14.01,2013-02-07 21:05:00,
2013-02-07 16:10:00,47.8,32.4,29.95,ENE,73,5.0,10.0,55,0.00,,---,0.01,297.00,VWS V14.01,2013-02-07 21:10:00,
2013-02-07 16:15:00,47.8,32.4,29.95,ENE,59,2.0,11.0,55,0.00,,---,0.01,281.00,VWS V14.01,2013-02-07 21:15:00,
2013-02-07 16:20:00,47.8,32.4,29.95,East,81,4.0,11.0,55,0.00,,---,0.01,267.00,VWS V14.01,2013-02-07 21:20:00,
2013-02-07 16:25:00,47.9,32.5,29.95,East,90,2.0,11.0,55,0.00,,---,0.01,251.00,VWS V14.01,2013-02-07 21:25:00,
2013-02-07 16:30:00,48.0,32.6,29.94,ENE,76,4.0,11.0,55,0.00,,---,0.01,234.00,VWS V14.01,2013-02-07 21:30:00,
2013-02-07 16:35:00,48.0,32.2,29.94,East,82,3.0,11.0,54,0.00,,---,0.01,214.00,VWS V14.01,2013-02-07 21:35:00,
2013-02-07 16:40:00,48.0,32.6,29.94,East,96,1.0,11.0,55,0.00,,---,0.01,195.00,VWS V14.01,2013-02-07 21:40:00,
2013-02-07 16:45:00,48.1,32.3,29.94,East,79,2.0,11.0,54,0.00,,---,0.01,176.00,VWS V14.01,2013-02-07 21:45:00,
2013-02-07 16:50:00,48.1,32.7,29.94,ENE,78,3.0,11.0,55,0.00,,---,0.01,156.00,VWS V14.01,2013-02-07 21:50:00,
2013-02-07 16:55:00,48.1,32.7,29.94,East,84,2.0,11.0,55,0.00,,---,0.01,139.00,VWS V14.01,2013-02-07 21:55:00,
2013-02-07 17:00:00,48.1,32.7,29.94,East,86,1.0,11.0,55,0.00,,---,0.01,121.00,VWS V14.01,2013-02-07 22:00:00,
2013-02-07 17:05:00,48.1,32.7,29.93,East,86,1.0,2.0,55,0.00,,---,0.01,104.00,VWS V14.01,2013-02-07 22:05:00,
2013-02-07 17:10:00,48.2,32.8,29.93,ESE,118,1.0,3.0,55,0.00,,---,0.01,88.00,VWS V14.01,2013-02-07 22:10:00,
2013-02-07 17:15:00,48.2,32.8,29.93,ESE,120,3.0,3.0,55,0.00,,---,0.01,74.00,VWS V14.01,2013-02-07 22:15:00,
2013-02-07 17:20:00,48.2,32.3,29.93,SE,126,0.0,4.0,54,0.00,,---,0.01,58.00,VWS V14.01,2013-02-07 22:20:00,
2013-02-07 17:25:00,48.2,32.8,29.93,SE,125,0.0,4.0,55,0.00,,---,0.01,46.00,VWS V14.01,2013-02-07 22:25:00,
2013-02-07 17:30:00,48.1,32.7,29.93,SE,125,0.0,1.0,55,0.00,,---,0.01,33.00,VWS V14.01,2013-02-07 22:30:00,
2013-02-07 17:35:00,47.8,32.4,29.92,East,89,0.0,3.0,55,0.00,,---,0.01,18.00,VWS V14.01,2013-02-07 22:35:00,
2013-02-07 17:40:00,47.5,32.6,29.93,East,89,0.0,3.0,56,0.00,,---,0.01,12.00,VWS V14.01,2013-02-07 22:40:00,
2013-02-07 17:45:00,47.2,32.3,29.93,East,89,0.0,3.0,56,0.00,,---,0.01,9.00,VWS V14.01,2013-02-07 22:45:00,
2013-02-07 17:50:00,46.9,32.0,29.93,East,89,1.0,3.0,56,0.00,,---,0.01,7.00,VWS V14.01,2013-02-07 22:50:00,
2013-02-07 17:56:00,46.6,32.2,29.93,East,89,2.0,3.0,57,0.00,,---,0.01,5.00,VWS V14.01,2013-02-07 22:56:00,
2013-02-07 18:00:00,42.2,31.7,29.92,ESE,121,0.0,3.0,66,0.00,,---,0.01,0.00,VWS V14.01,2013-02-07 23:00:00,
2013-02-07 18:01:00,46.3,31.9,29.93,East,89,0.0,0.0,57,0.00,,---,0.01,0.00,VWS V14.01,2013-02-07 23:01:00,
2013-02-07 18:06:00,46.0,32.1,29.93,East,89,0.0,0.0,58,0.00,,---,0.01,0.00,VWS V14.01,2013-02-07 23:06:00,
2013-02-07 18:11:00,45.7,31.8,29.93,East,89,0.0,0.0,58,0.00,,---,0.01,0.00,VWS V14.01,2013-02-07 23:11:00,
2013-02-07 18:16:00,45.2,31.7,29.93,East,89,0.0,1.0,59,0.00,,---,0.01,0.00,VWS V14.01,2013-02-07 23:16:00,
2013-02-07 18:21:00,44.7,31.7,29.93,East,89,0.0,2.0,60,0.00,,---,0.01,0.00,VWS V14.01,2013-02-07 23:21:00,
2013-02-07 18:26:00,44.3,31.7,29.93,East,89,0.0,2.0,61,0.00,,---,0.01,0.00,VWS V14.01,2013-02-07 23:26:00,
2013-02-07 18:30:00,42.5,32.0,29.91,East,93,0.0,4.0,66,0.00,,---,0.01,0.00,VWS V14.01,2013-02-07 23:30:00,
2013-02-07 18:31:00,43.8,31.6,29.93,East,89,0.0,0.0,62,0.00,,---,0.01,0.00,VWS V14.01,2013-02-07 23:31:00,
2013-02-07 18:36:00,43.4,31.3,29.93,East,89,0.0,0.0,62,0.00,,---,0.01,0.00,VWS V14.01,2013-02-07 23:36:00,
2013-02-07 18:41:00,43.1,31.4,29.93,East,89,0.0,0.0,63,0.00,,---,0.01,0.00,VWS V14.01,2013-02-07 23:41:00,
2013-02-07 18:46:00,42.8,31.5,29.93,East,89,0.0,0.0,64,0.00,,---,0.01,0.00,VWS V14.01,2013-02-07 23:46:00,
2013-02-07 18:51:00,42.5,31.2,29.93,East,89,0.0,1.0,64,0.00,,---,0.01,0.00,VWS V14.01,2013-02-07 23:51:00,
2013-02-07 18:56:00,42.3,31.4,29.93,ESE,122,0.0,3.0,65,0.00,,---,0.01,0.00,VWS V14.01,2013-02-07 23:56:00,
2013-02-07 19:00:00,42.2,31.7,29.90,ENE,59,0.0,4.0,66,0.00,,---,0.01,0.00,VWS V14.01,2013-02-08 00:00:00,
2013-02-07 19:01:00,42.2,31.7,29.92,ESE,121,0.0,0.0,66,0.00,,---,0.01,0.00,VWS V14.01,2013-02-08 00:01:00,
2013-02-07 19:06:00,42.2,31.7,29.92,SE,146,1.0,2.0,66,0.00,,---,0.01,0.00,VWS V14.01,2013-02-08 00:06:00,
2013-02-07 19:11:00,42.3,31.8,29.92,East,88,1.0,3.0,66,0.00,,---,0.01,0.00,VWS V14.01,2013-02-08 00:11:00,
2013-02-07 19:16:00,42.4,31.9,29.92,East,87,3.0,3.0,66,0.00,,---,0.01,0.00,VWS V14.01,2013-02-08 00:16:00,
2013-02-07 19:21:00,42.5,32.0,29.91,East,93,2.0,4.0,66,0.00,,---,0.01,0.00,VWS V14.01,2013-02-08 00:21:00,
2013-02-07 19:26:00,42.6,32.0,29.91,East,93,0.0,4.0,66,0.00,,---,0.01,0.00,VWS V14.01,2013-02-08 00:26:00,
2013-02-07 19:30:00,40.8,31.1,29.89,ENE,67,0.0,5.0,68,0.00,,---,0.01,0.00,VWS V14.01,2013-02-08 00:30:00,
2013-02-07 19:31:00,42.5,32.0,29.91,East,93,0.0,0.0,66,0.00,,---,0.01,0.00,VWS V14.01,2013-02-08 00:31:00,
2013-02-07 19:36:00,42.4,31.9,29.91,East,93,0.0,1.0,66,0.00,,---,0.01,0.00,VWS V14.01,2013-02-08 00:36:00,
2013-02-07 19:41:00,42.3,31.8,29.90,East,93,0.0,2.0,66,0.00,,---,0.01,0.00,VWS V14.01,2013-02-08 00:41:00,
2013-02-07 19:46:00,42.3,31.8,29.90,SE,132,4.0,4.0,66,0.00,,---,0.01,0.00,VWS V14.01,2013-02-08 00:46:00,
2013-02-07 19:51:00,42.2,31.7,29.90,SE,131,0.0,4.0,66,0.00,,---,0.01,0.00,VWS V14.01,2013-02-08 00:51:00,
2013-02-07 19:56:00,42.2,31.7,29.90,ENE,61,0.0,4.0,66,0.00,,---,0.01,0.00,VWS V14.01,2013-02-08 00:56:00,
2013-02-07 20:00:00,39.6,30.6,29.88,ENE,67,0.0,2.0,70,0.00,,---,0.01,0.00,VWS V14.01,2013-02-08 01:00:00,
2013-02-07 20:01:00,42.1,31.6,29.90,NE,46,4.0,4.0,66,0.00,,---,0.01,0.00,VWS V14.01,2013-02-08 01:01:00,
2013-02-07 20:06:00,42.1,31.6,29.89,ENE,67,0.0,5.0,66,0.00,,---,0.01,0.00,VWS V14.01,2013-02-08 01:06:00,
2013-02-07 20:11:00,41.9,31.8,29.89,ENE,67,0.0,5.0,67,0.00,,---,0.01,0.00,VWS V14.01,2013-02-08 01:11:00,
2013-02-07 20:16:00,41.6,31.5,29.89,ENE,67,0.0,5.0,67,0.00,,---,0.01,0.00,VWS V14.01,2013-02-08 01:16:00,
2013-02-07 20:21:00,41.4,31.3,29.89,ENE,67,0.0,5.0,67,0.00,,---,0.01,0.00,VWS V14.01,2013-02-08 01:21:00,
2013-02-07 20:26:00,41.0,31.3,29.89,ENE,67,0.0,5.0,68,0.00,,---,0.01,0.00,VWS V14.01,2013-02-08 01:26:00,
2013-02-07 20:30:00,41.4,32.0,29.87,ESE,120,0.0,6.0,69,0.00,,---,0.01,0.00,VWS V14.01,2013-02-08 01:30:00,
2013-02-07 20:31:00,40.7,31.0,29.89,ENE,67,0.0,0.0,68,0.00,,---,0.01,0.00,VWS V14.01,2013-02-08 01:31:00,
2013-02-07 20:36:00,40.4,31.0,29.89,ENE,67,0.0,2.0,69,0.00,,---,0.01,0.00,VWS V14.01,2013-02-08 01:36:00,
2013-02-07 20:41:00,40.1,31.1,29.89,ENE,67,0.0,2.0,70,0.00,,---,0.01,0.00,VWS V14.01,2013-02-08 01:41:00,
2013-02-07 20:46:00,40.0,31.0,29.89,ENE,67,0.0,2.0,70,0.00,,---,0.01,0.00,VWS V14.01,2013-02-08 01:46:00,
2013-02-07 20:51:00,39.9,30.9,29.89,ENE,67,0.0,2.0,70,0.00,,---,0.01,0.00,VWS V14.01,2013-02-08 01:51:00,
2013-02-07 20:56:00,39.8,30.8,29.88,ENE,67,0.0,2.0,70,0.00,,---,0.01,0.00,VWS V14.01,2013-02-08 01:56:00,
2013-02-07 21:00:00,40.8,32.1,29.86,ESE,102,0.0,3.0,71,0.00,,---,0.01,0.00,VWS V14.01,2013-02-08 02:00:00,
2013-02-07 21:01:00,39.6,31.0,29.88,SE,144,1.0,2.0,71,0.00,,---,0.01,0.00,VWS V14.01,2013-02-08 02:01:00,
2013-02-07 21:06:00,39.8,31.5,29.87,ENE,65,0.0,5.0,72,0.00,,---,0.01,0.00,VWS V14.01,2013-02-08 02:06:00,
2013-02-07 21:11:00,40.2,31.6,29.87,ESE,108,0.0,6.0,71,0.00,,---,0.01,0.00,VWS V14.01,2013-02-08 02:11:00,
2013-02-07 21:16:00,40.7,32.0,29.87,East,95,0.0,6.0,71,0.00,,---,0.01,0.00,VWS V14.01,2013-02-08 02:16:00,
2013-02-07 21:21:00,41.1,32.1,29.87,East,93,1.0,6.0,70,0.00,,---,0.01,0.00,VWS V14.01,2013-02-08 02:21:00,
2013-02-07 21:26:00,41.3,32.3,29.87,SE,136,0.0,6.0,70,0.00,,---,0.01,0.00,VWS V14.01,2013-02-08 02:26:00,
2013-02-07 21:30:00,41.7,33.3,29.84,ESE,103,0.0,11.0,72,0.00,,---,0.01,0.00,VWS V14.01,2013-02-08 02:30:00,
2013-02-07 21:31:00,41.5,32.1,29.87,ESE,120,0.0,1.0,69,0.00,,---,0.01,0.00,VWS V14.01,2013-02-08 02:31:00,
2013-02-07 21:36:00,41.5,32.1,29.87,ESE,120,0.0,1.0,69,0.00,,---,0.01,0.00,VWS V14.01,2013-02-08 02:36:00,
2013-02-07 21:41:00,41.5,32.1,29.86,ESE,120,0.0,1.0,69,0.00,,---,0.01,0.00,VWS V14.01,2013-02-08 02:41:00,
2013-02-07 21:46:00,41.3,31.5,29.87,ESE,120,0.0,1.0,68,0.00,,---,0.01,0.00,VWS V14.01,2013-02-08 02:46:00,
2013-02-07 21:51:00,41.1,31.7,29.87,ESE,120,0.0,1.0,69,0.00,,---,0.01,0.00,VWS V14.01,2013-02-08 02:51:00,
2013-02-07 21:57:00,41.0,32.0,29.86,ESE,120,0.0,1.0,70,0.00,,---,0.01,0.00,VWS V14.01,2013-02-08 02:57:00,
2013-02-07 22:00:00,42.4,34.0,29.82,SE,130,6.0,12.0,72,0.00,,---,0.01,0.00,VWS V14.01,2013-02-08 03:00:00,
2013-02-07 22:02:00,40.8,32.1,29.86,ESE,102,0.0,0.0,71,0.00,,---,0.01,0.00,VWS V14.01,2013-02-08 03:02:00,
2013-02-07 22:07:00,40.7,32.4,29.85,ESE,119,1.0,6.0,72,0.00,,---,0.01,0.00,VWS V14.01,2013-02-08 03:07:00,
2013-02-07 22:12:00,40.9,32.6,29.85,East,89,3.0,6.0,72,0.00,,---,0.01,0.00,VWS V14.01,2013-02-08 03:12:00,
2013-02-07 22:17:00,41.0,32.7,29.85,ESE,116,2.0,6.0,72,0.00,,---,0.01,0.00,VWS V14.01,2013-02-08 03:17:00,
2013-02-07 22:22:00,41.3,33.0,29.84,East,95,2.0,6.0,72,0.00,,---,0.01,0.00,VWS V14.01,2013-02-08 03:22:00,
2013-02-07 22:27:00,41.5,33.2,29.84,SE,127,4.0,9.0,72,0.00,,---,0.01,0.00,VWS V14.01,2013-02-08 03:27:00,
2013-02-07 22:30:00,42.7,34.7,29.81,SSE,150,2.0,11.0,73,0.00,,---,0.01,0.00,VWS V14.01,2013-02-08 03:30:00,
2013-02-07 22:32:00,41.7,33.3,29.84,SE,136,3.0,5.0,72,0.00,,---,0.01,0.00,VWS V14.01,2013-02-08 03:32:00,
2013-02-07 22:37:00,42.0,33.6,29.84,SE,138,2.0,7.0,72,0.00,,---,0.01,0.00,VWS V14.01,2013-02-08 03:37:00,
2013-02-07 22:42:00,42.1,33.7,29.83,SE,130,0.0,7.0,72,0.00,,---,0.01,0.00,VWS V14.01,2013-02-08 03:42:00,
2013-02-07 22:47:00,42.1,33.7,29.83,ESE,108,2.0,7.0,72,0.00,,---,0.01,0.00,VWS V14.01,2013-02-08 03:47:00,
2013-02-07 22:52:00,42.2,33.8,29.83,ESE,107,0.0,7.0,72,0.00,,---,0.01,0.00,VWS V14.01,2013-02-08 03:52:00,
2013-02-07 22:57:00,42.3,33.9,29.83,SE,124,4.0,10.0,72,0.00,,---,0.01,0.00,VWS V14.01,2013-02-08 03:57:00,
2013-02-07 23:00:00,43.2,35.1,29.80,South,171,1.0,15.0,73,0.00,,---,0.01,0.00,VWS V14.01,2013-02-08 04:00:00,
2013-02-07 23:02:00,42.4,34.0,29.82,SE,129,6.0,7.0,72,0.00,,---,0.01,0.00,VWS V14.01,2013-02-08 04:02:00,
2013-02-07 23:07:00,42.5,34.1,29.82,ESE,113,9.0,9.0,72,0.00,,---,0.01,0.00,VWS V14.01,2013-02-08 04:07:00,
2013-02-07 23:12:00,42.5,34.1,29.81,SE,132,11.0,11.0,72,0.00,,---,0.01,0.00,VWS V14.01,2013-02-08 04:12:00,
2013-02-07 23:17:00,42.7,34.3,29.81,SSE,156,2.0,11.0,72,0.00,,---,0.01,0.00,VWS V14.01,2013-02-08 04:17:00,
2013-02-07 23:22:00,42.7,34.7,29.81,SSE,154,6.0,11.0,73,0.00,,---,0.01,0.00,VWS V14.01,2013-02-08 04:22:00,
2013-02-07 23:27:00,42.7,34.7,29.81,SE,138,6.0,11.0,73,0.00,,---,0.01,0.00,VWS V14.01,2013-02-08 04:27:00,
2013-02-07 23:30:00,43.0,35.3,29.79,SSE,155,4.0,17.0,74,0.00,,---,0.00,0.00,VWS V14.01,2013-02-08 04:30:00,
2013-02-07 23:32:00,42.7,34.7,29.80,SSE,155,1.0,7.0,73,0.00,,---,0.01,0.00,VWS V14.01,2013-02-08 04:32:00,
2013-02-07 23:37:00,42.7,34.7,29.80,ESE,123,3.0,10.0,73,0.00,,---,0.01,0.00,VWS V14.01,2013-02-08 04:37:00,
2013-02-07 23:42:00,42.8,35.1,29.80,SE,144,3.0,12.0,74,0.00,,---,0.01,0.00,VWS V14.01,2013-02-08 04:42:00,
2013-02-07 23:47:00,42.9,34.8,29.80,SSE,161,0.0,12.0,73,0.00,,---,0.01,0.00,VWS V14.01,2013-02-08 04:47:00,
2013-02-07 23:52:00,43.0,35.0,29.80,SE,146,5.0,14.0,73,0.00,,---,0.01,0.00,VWS V14.01,2013-02-08 04:52:00,
2013-02-07 23:57:00,43.2,35.1,29.80,South,180,4.0,14.0,73,0.00,,---,0.01,0.00,VWS V14.01,2013-02-08 04:57:00,